Location: Central Coast
(33.3208°S, 151.2336°E)
Time: 20:31:55
(UTC+11:00)

Envisat - Pass Details

Date: 10 October 2017
Orbit: 764 x 766 km, 98.2° (Epoch: 16 October)

Event Time Altitude Azimuth Distance (km) Brightness Sun altitude
Rises 20:37:57 0° 154° (SSE) 3,264 6.2 -19.7°
Reaches altitude 10° 20:40:37 10° 141° (SE) 2,329 5.3 -20.2°
Enters shadow 20:42:12 17° 128° (SE) 1,863 4.7 -20.5°
